Location: Poughquag
(41.6090°N, 73.6820°W)
Time: 14:42:56
(UTC-04:00)

Amateur Radio Satellites - All Passes

Search period start: 30 April 2017 14:12
Search period end: 01 May 2017 14:12
Location: Poughquag, 41.6090°N, 73.6820°W

Satellite Date Start Highest point End Downlink Frequencies (MHz)
Time Altitude Azimuth
UKube-1 30 Apr 14:19:34 14:23:54 89° 298° (WNW) 14:28:13 .
VELOX 1 30 Apr 14:24:08 14:27:34 22° 294° (WNW) 14:30:59 145.980
SO-50 30 Apr 14:41:13 14:45:45 83° 238° (WSW) 14:50:15 436.795
BEESAT 3 30 Apr 14:48:41 14:50:34 13° 321° (NW) 14:52:27 437.485
BEESAT 2 30 Apr 14:55:34 14:58:44 22° 314° (NW) 15:01:58 435.950
SPROUT 30 Apr 14:56:40 14:57:36 11° 299° (WNW) 14:58:31 437.525
ISS 30 Apr 14:59:55 15:01:47 14° 229° (SW) 15:03:39 437.550
DX 1 30 Apr 15:02:01 15:05:26 23° 294° (WNW) 15:08:49 434.975-435.025
ITAMSAT 1 30 Apr 15:11:38 15:16:46 67° 73° (ENE) 15:21:55 435.822/435.867
BEESAT 30 Apr 15:13:29 15:17:35 28° 96° (E) 15:21:40 436.000
YUBILEINY 30 Apr 15:43:38 15:52:27 86° 262° (W) 16:01:16 435.215
AO-7 30 Apr 15:46:41 15:54:57 74° 254° (WSW) 16:03:16 .
ITUPSAT 1 30 Apr 15:56:33 16:01:21 75° 103° (ESE) 16:06:08 437.325
MOZHAYETS 4 30 Apr 16:05:57 16:10:27 49° 99° (E) 16:14:56
RS-15 30 Apr 16:06:20 16:18:41 87° 58° (ENE) 16:30:23 29.354- 29.394
DOVE 4 30 Apr 16:29:28 16:31:56 14° 61° (ENE) 16:34:23 437.250
BEESAT 30 Apr 16:51:08 16:55:19 31° 292° (WNW) 16:59:30 436.000
CUTE-I 30 Apr 16:53:18 16:56:04 14° 59° (ENE) 16:58:50 437.470
ITAMSAT 1 30 Apr 16:53:51 16:56:41 15° 269° (W) 16:59:33 435.822/435.867
XW-2C 30 Apr 17:01:40 17:02:21 10° 64° (ENE) 17:03:03 145.795 - 145.815
LilacSat-2 30 Apr 17:04:45 17:06:18 12° 64° (ENE) 17:07:51 437.200
CUBESAT XI-V 30 Apr 17:08:36 17:13:02 39° 97° (E) 17:17:26 437.345
NUDT-PHONESAT 30 Apr 17:20:35 17:22:27 14° 66° (ENE) 17:24:18 437.300
XW-2F 30 Apr 17:21:50 17:24:21 17° 67° (ENE) 17:26:52 145.980 - 146.000
KKS-1 30 Apr 17:23:24 17:27:46 54° 101° (E) 17:32:05 437.445
ITUPSAT 1 30 Apr 17:36:20 17:38:32 13° 300° (WNW) 17:40:44 437.325
YUBILEINY 30 Apr 17:42:50 17:47:52 17° 284° (WNW) 17:52:55 435.215
STARS 30 Apr 17:42:56 17:47:00 37° 98° (E) 17:51:02 437.465
MOZHAYETS 4 30 Apr 17:44:08 17:47:13 18° 296° (WNW) 17:50:18
AO-7 30 Apr 17:45:22 17:49:01 13° 272° (W) 17:52:41 .
NO-84 30 Apr 17:59:22 18:02:59 37° 133° (SE) 18:06:19 435.350 FM
DOVE 4 30 Apr 18:03:38 18:08:56 84° 257° (WSW) 18:14:07 437.250
HO-68 30 Apr 18:03:56 18:09:23 24° 58° (ENE) 18:14:49 435.675
XW-2D 30 Apr 18:13:05 18:16:49 81° 78° (ENE) 18:20:35 145.860 - 145.880
KAITUO 1B 30 Apr 18:19:05 18:22:45 73° 75° (ENE) 18:26:28 145.475/437.950
XW-2B 30 Apr 18:20:09 18:23:53 85° 259° (W) 18:27:40 145.730 - 145.750
RS-15 30 Apr 18:20:32 18:29:31 26° 260° (W) 18:38:14 29.354- 29.394
CUTE-I 30 Apr 18:30:03 18:35:24 81° 257° (WSW) 18:40:46 437.470
XW-2C 30 Apr 18:32:22 18:36:03 57° 260° (W) 18:39:46 145.795 - 145.815
LilacSat-2 30 Apr 18:36:30 18:40:09 48° 261° (W) 18:43:49 437.200
CUBESAT XI-V 30 Apr 18:46:31 18:50:09 22° 294° (WNW) 18:53:46 437.345
NUDT-PHONESAT 30 Apr 18:52:33 18:56:00 40° 262° (W) 18:59:29 437.300
XW-2F 30 Apr 18:54:55 18:58:15 31° 263° (W) 19:01:37 145.980 - 146.000
O/OREOS (USA 219) 30 Apr 18:59:16 19:03:27 34° 60° (ENE) 19:07:36 437.305
KKS-1 30 Apr 19:01:17 19:03:52 15° 297° (WNW) 19:06:25 437.445
UWE-3 30 Apr 19:12:30 19:14:37 14° 64° (ENE) 19:16:42 435.000/436.395/437.385
CUTE 1.7 + AOD 2 30 Apr 19:16:48 19:20:54 53° 74° (ENE) 19:25:03 437.475
STARS 30 Apr 19:19:52 19:23:05 20° 295° (WNW) 19:26:17 437.465
XW-2A 30 Apr 19:25:19 19:28:38 69° 76° (ENE) 19:31:58 145.665 - 145.685
SEEDS 30 Apr 19:28:16 19:32:16 45° 73° (ENE) 19:36:19 437.485
STRAND 1 30 Apr 19:30:55 19:35:03 24° 94° (E) 19:39:10 437.568
CUBEBUG 2 30 Apr 19:33:06 19:37:03 37° 72° (ENE) 19:40:56 437.445
NO-84 30 Apr 19:37:18 19:40:34 29° 327° (NNW) 19:43:36 435.350 FM
HO-68 30 Apr 19:49:19 19:56:26 71° 256° (WSW) 20:03:37 435.675
ZACube-1 30 Apr 19:56:20 19:59:37 23° 68° (ENE) 20:02:53 437.345
AO-73 30 Apr 20:00:29 20:03:45 23° 68° (ENE) 20:07:01 145.935
Oscar 11 30 Apr 20:10:10 20:13:42 25° 68° (ENE) 20:17:16 .
AO-85 30 Apr 20:20:44 20:24:38 52° 54° (NE) 20:28:41 145.980
AAUSAT CUBESAT 2 30 Apr 20:22:24 20:26:33 90° 267° (W) 20:30:45 437.432
M-CUBED/EXP-1 PRIME 30 Apr 20:27:07 20:31:01 46° 104° (ESE) 20:34:35 437.505
DELFI C3 30 Apr 20:28:59 20:30:04 11° 63° (ENE) 20:31:08 145.870
O/OREOS (USA 219) 30 Apr 20:39:02 20:42:40 24° 258° (WSW) 20:46:16 437.305
UWE-3 30 Apr 20:46:30 20:50:38 53° 260° (W) 20:54:44 435.000/436.395/437.385
CUTE 1.7 + AOD 2 30 Apr 20:55:05 20:57:04 13° 270° (W) 20:59:02 437.475
SEEDS 30 Apr 21:05:47 21:08:12 15° 269° (W) 21:10:37 437.485
STRAND 1 30 Apr 21:09:36 21:14:21 40° 291° (WNW) 21:19:05 437.568
CUBEBUG 2 30 Apr 21:10:47 21:13:47 18° 267° (W) 21:16:46 437.445
BEESAT 3 30 Apr 21:25:06 21:29:02 49° 53° (NE) 21:32:53 437.485
ZACube-1 30 Apr 21:32:09 21:35:46 29° 264° (W) 21:39:23 437.345
OBJECT BX 30 Apr 21:33:53 21:37:18 42° 73° (ENE) 21:40:46 145.990 - 145.960
BEESAT 2 30 Apr 21:34:39 21:38:06 26° 48° (NE) 21:41:32 435.950
AO-73 30 Apr 21:36:15 21:39:51 29° 264° (W) 21:43:29 145.935
HO-68 30 Apr 21:43:37 21:45:21 11° 274° (W) 21:47:05 435.675
Oscar 11 30 Apr 21:46:01 21:49:44 28° 264° (W) 21:53:28 .
DELFI C3 30 Apr 22:00:19 22:04:17 64° 260° (W) 22:08:16 145.870
AO-85 30 Apr 22:02:28 22:04:38 14° 249° (WSW) 22:06:50 145.980
M-CUBED/EXP-1 PRIME 30 Apr 22:02:38 22:05:00 15° 303° (WNW) 22:07:16 437.505
FO-29 30 Apr 22:05:16 22:08:48 18° 93° (E) 22:12:30 435.910
TIGRISAT 30 Apr 22:05:55 22:08:50 18° 93° (E) 22:11:47 435.000
PRISM 30 Apr 22:06:34 22:10:10 28° 96° (E) 22:13:44 437.425
ESTCUBE 1 30 Apr 22:17:07 22:19:31 14° 62° (ENE) 22:21:54 437.505/2401.250
LO-87 30 Apr 22:23:02 22:25:53 22° 69° (ENE) 22:28:43 145.935 - 145.965
UNISAT 6 30 Apr 22:27:48 22:31:42 33° 97° (E) 22:35:40 437.425
BEESAT 3 30 Apr 23:03:53 23:06:12 15° 250° (WSW) 23:08:30 437.485
OBJECT BX 30 Apr 23:09:48 23:11:12 12° 269° (W) 23:12:37 145.990 - 145.960
BEESAT 2 30 Apr 23:12:16 23:15:52 31° 245° (WSW) 23:19:26 435.950
QB50P2 30 Apr 23:29:04 23:30:20 11° 90° (E) 23:31:35 145.880/145.840
TIGRISAT 30 Apr 23:41:39 23:45:41 40° 288° (WNW) 23:49:47 435.000
PRISM 30 Apr 23:42:00 23:45:19 23° 293° (WNW) 23:48:36 437.425
VELOX 1 30 Apr 23:44:30 23:48:27 32° 69° (ENE) 23:52:25 145.980
NANOSAT C BR1 30 Apr 23:45:15 23:47:36 14° 92° (E) 23:49:56 145.865
FO-29 30 Apr 23:49:04 23:54:13 57° 288° (WNW) 23:59:48 435.910
ESTCUBE 1 30 Apr 23:51:19 23:55:47 61° 259° (W) 00:00:17 437.505/2401.250
AIST 2D 30 Apr 23:52:13 23:55:31 35° 98° (E) 23:58:47 435.315
LO-87 30 Apr 23:56:18 23:59:13 23° 265° (W) 00:02:09 145.935 - 145.965
50 SAT 30 Apr 23:59:27 00:02:08 21° 69° (ENE) 00:04:50 437.505
UNISAT 6 01 May 00:04:54 00:08:14 22° 293° (WNW) 00:11:37 437.425
SPROUT 01 May 00:11:09 00:15:19 56° 74° (ENE) 00:19:31 437.525
DUCHIFAT 1 01 May 00:11:30 00:15:00 25° 96° (E) 00:18:29 145.980
EO-79 01 May 00:14:56 00:18:46 34° 97° (E) 00:22:36 145.935-145.965
DX 1 01 May 00:21:03 00:24:53 30° 68° (ENE) 00:28:42 434.975-435.025
NO-84 01 May 00:33:45 00:36:21 25° 31° (NNE) 00:38:49 435.350 FM
PCSat 01 May 00:44:15 00:48:37 25° 108° (ESE) 00:53:00 145.827
BUGSAT 1 01 May 00:54:22 00:57:36 23° 95° (E) 01:00:50 437.445
POLYITAN 1 01 May 00:55:23 00:59:36 80° 285° (WNW) 01:03:49 437.675
QB50P2 01 May 01:02:21 01:06:30 61° 286° (WNW) 01:10:39 145.880/145.840
UKube-1 01 May 01:13:42 01:18:02 78° 74° (ENE) 01:22:22 .
NANOSAT C BR1 01 May 01:19:32 01:23:33 46° 288° (WNW) 01:27:34 145.865
VELOX 1 01 May 01:21:18 01:24:54 24° 265° (W) 01:28:32 145.980
AIST 2D 01 May 01:26:32 01:28:24 14° 293° (WNW) 01:30:17 435.315
ITUPSAT 1 01 May 01:29:53 01:30:55 11° 58° (ENE) 01:31:57 437.325
50 SAT 01 May 01:32:11 01:34:57 22° 265° (W) 01:37:45 437.505
DUCHIFAT 1 01 May 01:47:06 01:50:36 26° 292° (WNW) 01:54:05 145.980
Oscar 19 01 May 01:48:13 01:52:53 33° 96° (E) 01:57:31 437.125/150
SPROUT 01 May 01:49:44 01:51:34 13° 269° (W) 01:53:25 437.525
EO-79 01 May 01:51:12 01:54:19 20° 293° (WNW) 01:57:25 145.935-145.965
DX 1 01 May 01:57:25 02:01:02 25° 265° (W) 02:04:40 434.975-435.025
NO-84 01 May 02:11:19 02:13:47 25° 230° (SW) 02:16:11 435.350 FM
BEESAT 01 May 02:19:55 02:24:09 33° 68° (ENE) 02:28:25 436.000
PCSat 01 May 02:26:31 02:31:43 46° 305° (NW) 02:36:58 145.827
Gurwin Techsat 1B 01 May 02:27:47 02:32:53 45° 99° (E) 02:37:57 435.225
BUGSAT 1 01 May 02:29:33 02:32:55 26° 291° (WNW) 02:36:17 437.445
YUBILEINY 01 May 02:50:58 02:57:10 22° 79° (E) 03:03:21 435.215
ITUPSAT 1 01 May 03:03:14 03:07:58 88° 84° (E) 03:12:46 437.325
MOZHAYETS 4 01 May 03:07:47 03:12:08 47° 72° (ENE) 03:16:31
ITAMSAT 1 01 May 03:24:57 03:29:00 23° 94° (E) 03:33:02 435.822/435.867
Oscar 19 01 May 03:27:34 03:32:07 31° 293° (WNW) 03:36:39 437.125/150
AO-7 01 May 03:48:18 03:55:53 37° 98° (E) 04:03:26 .
BEESAT 01 May 03:58:00 04:01:56 26° 265° (W) 04:05:55 436.000
Gurwin Techsat 1B 01 May 04:08:20 04:12:32 24° 296° (WNW) 04:16:43 435.225
CUBESAT XI-V 01 May 04:11:50 04:16:08 39° 71° (ENE) 04:20:30 437.345
KKS-1 01 May 04:21:16 04:25:35 51° 72° (ENE) 04:29:56 437.445
RS-15 01 May 04:28:34 04:30:22 10° 91° (E) 04:32:10 29.354- 29.394
STARS 01 May 04:39:30 04:43:29 34° 70° (ENE) 04:47:28 437.465
YUBILEINY 01 May 04:44:16 04:52:57 76° 279° (W) 05:01:43 435.215
MOZHAYETS 4 01 May 04:46:36 04:49:33 17° 268° (W) 04:52:29
SO-50 01 May 04:55:48 04:59:49 30° 114° (ESE) 05:03:47 436.795
ITAMSAT 1 01 May 05:03:44 05:08:38 44° 291° (WNW) 05:13:31 435.822/435.867
AO-7 01 May 05:40:52 05:48:48 51° 296° (WNW) 05:56:44 .
CUBESAT XI-V 01 May 05:50:05 05:53:39 21° 267° (W) 05:57:14 437.345
KKS-1 01 May 05:59:50 06:02:26 15° 268° (W) 06:05:02 437.445
ISS 01 May 06:03:26 06:05:40 17° 132° (SE) 06:07:54 437.550
DOVE 4 01 May 06:03:34 06:07:11 24° 93° (E) 06:10:40 437.250
XW-2C 01 May 06:05:55 06:07:59 14° 92° (E) 06:10:04 145.795 - 145.815
LilacSat-2 01 May 06:10:12 06:12:45 17° 93° (E) 06:15:19 437.200
STARS 01 May 06:16:29 06:19:53 22° 265° (W) 06:23:17 437.465
NUDT-PHONESAT 01 May 06:23:19 06:25:52 17° 93° (E) 06:28:24 437.300
XW-2F 01 May 06:26:44 06:29:51 24° 95° (E) 06:32:58 145.980 - 146.000
RS-15 01 May 06:28:17 06:39:52 58° 112° (ESE) 06:51:47 29.354- 29.394
SO-50 01 May 06:36:01 06:40:12 33° 311° (NW) 06:44:20 436.795
Tancredo 1 01 May 06:38:06 06:41:07 50° 139° (SE) 06:44:07 437.200
YUBILEINY 01 May 06:46:35 06:51:24 16° 301° (WNW) 06:56:14 435.215
STRAND 1 01 May 06:46:49 06:51:25 36° 68° (ENE) 06:56:03 437.568
CUTE-I 01 May 06:47:04 06:52:02 39° 98° (E) 06:56:58 437.470
M-CUBED/EXP-1 PRIME 01 May 07:11:40 07:16:17 65° 69° (ENE) 07:20:53 437.505
HO-68 01 May 07:17:45 07:23:12 23° 92° (E) 07:28:36 435.675
XW-2D 01 May 07:19:20 07:23:08 68° 285° (WNW) 07:26:57 145.860 - 145.880
KAITUO 1B 01 May 07:23:48 07:27:35 79° 285° (WNW) 07:31:22 145.475/437.950
XW-2B 01 May 07:26:27 07:30:13 57° 286° (WNW) 07:33:59 145.730 - 145.750
AO-7 01 May 07:36:54 07:39:37 12° 318° (NW) 07:42:22 .
ISS 01 May 07:38:39 07:41:52 55° 328° (NNW) 07:45:05 437.550
XW-2C 01 May 07:38:46 07:42:21 40° 288° (WNW) 07:45:57 145.795 - 145.815
DOVE 4 01 May 07:40:59 07:44:54 30° 292° (WNW) 07:48:39 437.250
LilacSat-2 01 May 07:43:38 07:47:08 33° 288° (WNW) 07:50:37 437.200
NUDT-PHONESAT 01 May 07:56:31 07:59:49 30° 289° (WNW) 08:03:08 437.300
XW-2F 01 May 08:00:50 08:03:54 23° 291° (WNW) 08:06:58 145.980 - 146.000
AAUSAT CUBESAT 2 01 May 08:05:43 08:07:58 14° 91° (E) 08:10:12 437.432
Tancredo 1 01 May 08:14:32 08:17:08 24° 338° (NNW) 08:19:45 437.200
XW-2A 01 May 08:19:27 08:22:49 73° 101° (E) 08:26:11 145.665 - 145.685
STRAND 1 01 May 08:26:20 08:30:38 27° 265° (W) 08:34:58 437.568
CUTE-I 01 May 08:27:28 08:31:53 27° 295° (WNW) 08:36:17 437.470
UWE-3 01 May 08:35:42 08:39:21 27° 96° (E) 08:43:03 435.000/436.395/437.385
CUTE 1.7 + AOD 2 01 May 08:36:53 08:41:11 77° 284° (WNW) 08:45:27 437.475
RS-15 01 May 08:40:59 08:52:41 50° 316° (NW) 09:04:41 29.354- 29.394
SEEDS 01 May 08:47:02 08:51:19 89° 83° (E) 08:55:34 437.485
M-CUBED/EXP-1 PRIME 01 May 08:48:34 08:51:02 14° 264° (W) 08:53:31 437.505
PRISM 01 May 08:56:08 08:59:21 22° 67° (ENE) 09:02:35 437.425
CUBEBUG 2 01 May 08:59:21 09:03:34 86° 107° (ESE) 09:07:51 437.445
HO-68 01 May 09:04:19 09:11:28 69° 290° (WNW) 09:18:36 435.675
TIGRISAT 01 May 09:05:18 09:08:01 17° 65° (ENE) 09:10:43 435.000
O/OREOS (USA 219) 01 May 09:11:33 09:15:46 38° 106° (ESE) 09:20:02 437.305
ISS 01 May 09:16:39 09:18:54 17° 348° (NNW) 09:21:09 437.550
ZACube-1 01 May 09:19:08 09:23:16 48° 99° (E) 09:27:28 437.345
AO-73 01 May 09:22:53 09:27:01 47° 99° (E) 09:31:13 145.935
UNISAT 6 01 May 09:26:54 09:30:39 30° 70° (ENE) 09:34:22 437.425
PCSat 01 May 09:31:09 09:35:36 25° 47° (NE) 09:39:59 145.827
Oscar 11 01 May 09:32:10 09:36:25 50° 100° (E) 09:40:38 .
DELFI C3 01 May 09:38:18 09:40:43 15° 92° (E) 09:43:08 145.870
AAUSAT CUBESAT 2 01 May 09:39:38 09:43:41 48° 287° (WNW) 09:47:42 437.432
Tancredo 1 01 May 09:52:16 09:53:50 13° 358° (N) 09:55:23 437.200
FO-29 01 May 10:01:10 10:07:08 60° 73° (ENE) 10:12:30 435.910
UWE-3 01 May 10:12:13 10:15:43 25° 291° (WNW) 10:19:16 435.000/436.395/437.385
AIST 2D 01 May 10:28:00 10:29:53 14° 67° (ENE) 10:31:46 435.315
PRISM 01 May 10:30:44 10:34:26 31° 263° (W) 10:38:11 437.425
OBJECT BX 01 May 10:35:45 10:39:23 55° 101° (E) 10:42:58 145.990 - 145.960
AO-85 01 May 10:36:53 10:39:28 16° 111° (ESE) 10:41:56 145.980
NANOSAT C BR1 01 May 10:38:32 10:40:09 12° 62° (ENE) 10:41:45 145.865
TIGRISAT 01 May 10:40:12 10:44:21 45° 261° (W) 10:48:29 435.000
O/OREOS (USA 219) 01 May 10:51:37 10:55:18 23° 303° (WNW) 10:59:00 437.305
ISS 01 May 10:54:20 10:56:21 15° 8° (N) 10:58:23 437.550
HO-68 01 May 10:54:28 10:57:54 14° 309° (NW) 11:01:19 435.675
ZACube-1 01 May 10:56:36 10:59:10 16° 295° (WNW) 11:01:47 437.345
RS-15 01 May 10:59:39 11:09:14 25° 348° (NNW) 11:18:49 29.354- 29.394
AO-73 01 May 11:00:17 11:02:53 16° 295° (WNW) 11:05:31 145.935
DUCHIFAT 1 01 May 11:03:46 11:06:50 20° 67° (ENE) 11:09:54 145.980
UNISAT 6 01 May 11:03:51 11:07:21 24° 265° (W) 11:10:51 437.425
EO-79 01 May 11:07:33 11:11:05 27° 68° (ENE) 11:14:36 145.935-145.965
Oscar 11 01 May 11:09:30 11:12:08 16° 296° (WNW) 11:14:45 .
DELFI C3 01 May 11:11:56 11:15:41 39° 288° (WNW) 11:19:23 145.870
PCSat 01 May 11:14:01 11:19:19 55° 246° (WSW) 11:24:35 145.827
LO-87 01 May 11:22:41 11:25:39 25° 96° (E) 11:28:37 145.935 - 145.965
Tancredo 1 01 May 11:28:15 11:30:36 19° 18° (NNE) 11:32:57 437.200
ESTCUBE 1 01 May 11:43:52 11:47:44 27° 95° (E) 11:51:36 437.505/2401.250
BUGSAT 1 01 May 11:44:38 11:47:26 18° 66° (ENE) 11:50:13 437.445
POLYITAN 1 01 May 11:47:38 11:51:49 76° 77° (ENE) 11:56:01 437.675
FO-29 01 May 11:48:26 11:52:31 19° 267° (W) 11:56:21 435.910
QB50P2 01 May 11:54:32 11:58:45 83° 257° (WSW) 12:02:59 145.880/145.840
AIST 2D 01 May 11:59:38 12:02:48 33° 263° (W) 12:05:59 435.315
NANOSAT C BR1 01 May 12:11:09 12:15:19 64° 258° (WSW) 12:19:29 145.865
OBJECT BX 01 May 12:11:50 12:12:34 10° 296° (WNW) 12:13:18 145.990 - 145.960
Gurwin Techsat 1B 01 May 12:14:32 12:15:13 10° 56° (NE) 12:15:54 435.225
AO-85 01 May 12:15:22 12:19:30 49° 306° (NW) 12:23:26 145.980
ISS 01 May 12:30:26 12:33:32 38° 28° (NNE) 12:36:36 437.550
DUCHIFAT 1 01 May 12:38:28 12:42:17 34° 262° (W) 12:46:07 145.980
EO-79 01 May 12:43:15 12:46:46 26° 264° (W) 12:50:18 145.935-145.965
BEESAT 3 01 May 12:51:50 12:55:46 83° 121° (ESE) 12:59:47 437.485
50 SAT 01 May 12:55:06 12:57:47 20° 95° (E) 13:00:25 437.505
LO-87 01 May 12:56:22 12:58:57 19° 292° (WNW) 13:01:31 145.935 - 145.965
AO-7 01 May 13:01:23 13:04:21 12° 42° (NE) 13:07:19 .
YUBILEINY 01 May 13:02:20 13:03:39 10° 53° (NE) 13:04:58 435.215
UKube-1 01 May 13:02:25 13:04:14 12° 91° (E) 13:06:03 .
BEESAT 2 01 May 13:03:06 13:06:48 39° 117° (ESE) 13:10:34 435.950
Tancredo 1 01 May 13:03:42 13:06:48 84° 220° (SW) 13:09:53 437.200
Oscar 19 01 May 13:05:01 13:09:58 48° 70° (ENE) 13:14:57 437.125/150
VELOX 1 01 May 13:09:57 13:14:21 61° 101° (E) 13:18:42 145.980
RS-15 01 May 13:16:56 13:27:20 30° 24° (NNE) 13:37:25 29.354- 29.394
BUGSAT 1 01 May 13:18:41 13:22:31 37° 262° (W) 13:26:20 437.445
ESTCUBE 1 01 May 13:20:33 13:24:30 29° 292° (WNW) 13:28:24 437.505/2401.250
SO-50 01 May 13:26:29 13:30:28 30° 47° (NE) 13:34:26 436.795
SPROUT 01 May 13:32:12 13:36:27 76° 284° (WNW) 13:40:40 437.525
DX 1 01 May 13:44:21 13:48:38 53° 100° (E) 13:52:52 434.975-435.025
Gurwin Techsat 1B 01 May 13:48:55 13:54:12 73° 74° (ENE) 13:59:32 435.225
ISS 01 May 14:07:07 14:09:55 27° 225° (SW) 14:12:43 437.550
